EHI
0 0 0 0 0 0 0 0 0 0 1 3 7 12 15 19 23 24 21 15 10 9 10 11 12 14 14 13 12 12 12 12 13 14 14 12 13 14 12 10 10 11 12 13
0 0 0 0 0 0 0 0 0 0 2 6 10 14 16 17 19 20 18 13 9 8 9 10 10 10 12 12 12 13 13 13 14 15 15 14 14 14 12 10 10 12 14 15
0 0 0 0 0 0 0 0 0 1 5 10 12 14 15 13 13 14 14 10 7 6 7 8 7 7 10 11 12 14 15 16 16 17 16 15 13 12 11 10 10 11 13 14
0 0 0 1 1 1 0 0 0 1 6 9 10 11 11 10 10 11 12 10 7 6 7 6 6 7 9 11 12 14 15 16 16 17 16 14 12 11 11 10 10 10 10 11
0 0 1 1 2 3 1 1 1 3 6 8 8 8 8 8 10 12 12 12 10 9 8 7 7 8 9 9 11 13 13 13 13 14 14 13 11 10 10 10 9 9 9 9
0 0 1 2 3 4 4 3 4 5 8 9 9 7 6 7 10 12 13 14 13 12 11 9 9 10 11 10 10 10 11 11 11 12 12 12 11 10 10 9 9 8 9 10
0 0 1 3 4 5 5 6 7 9 10 10 10 8 7 9 11 13 13 14 15 14 12 11 13 16 15 12 9 9 9 10 9 9 11 12 11 10 10 9 9 8 9 11
1 1 3 5 6 6 6 7 9 11 12 11 11 10 9 10 12 13 14 15 16 15 14 14 17 19 17 14 10 9 9 10 9 8 8 10 10 9 9 9 9 8 9 10
2 3 5 8 8 8 8 8 9 10 11 11 11 11 10 11 13 15 16 16 16 16 16 16 16 17 16 15 12 10 10 10 10 8 8 9 9 8 8 8 7 7 7 7
4 4 5 8 9 10 9 9 9 9 9 10 10 11 11 12 15 17 17 16 16 16 16 15 14 13 14 14 12 10 10 10 9 8 8 9 8 6 5 6 6 6 5 5
4 4 5 7 8 9 9 10 9 9 8 8 9 10 11 12 14 16 16 15 16 16 15 14 12 12 11 11 10 8 8 8 7 7 8 8 6 4 3 3 4 4 3 3
5 4 5 8 8 8 9 9 9 9 9 9 10 11 11 12 13 14 15 15 16 15 13 11 10 9 8 8 7 5 4 5 5 6 6 6 4 2 1 1 1 1 1 1
6 6 7 9 9 9 8 8 9 9 10 11 12 12 13 13 14 14 14 14 15 14 12 10 9 7 6 6 5 3 3 3 4 4 5 4 2 1 1 0 0 0 0 0
7 8 9 9 10 9 8 8 9 11 12 13 13 13 13 14 13 12 12 11 11 10 10 10 9 8 7 6 5 4 4 3 3 3 4 4 2 2 1 1 0 0 0 0
8 9 10 9 9 8 6 7 10 12 12 12 11 11 11 11 11 9 8 6 6 8 9 9 9 9 8 7 6 6 4 3 3 2 2 2 3 3 2 1 0 0 0 1
7 8 9 8 7 6 5 5 8 11 10 9 9 8 8 9 9 7 6 5 5 7 8 9 9 8 7 6 6 6 5 3 2 1 0 1 2 2 2 1 1 1 1 1
5 6 7 7 6 4 3 4 6 8 9 8 8 8 8 9 8 7 6 6 6 6 7 8 7 6 5 6 6 5 4 3 2 0 0 0 1 1 2 2 2 2 1 1
4 4 4 5 4 3 3 4 5 7 9 9 9 9 8 8 7 6 5 5 6 5 5 5 5 4 4 4 5 4 3 2 1 1 0 0 0 1 2 2 2 1 1 0
3 3 3 4 3 3 4 5 7 8 9 10 9 9 8 7 7 6 4 4 4 4 4 3 3 3 3 3 3 2 1 1 1 1 1 0 0 1 1 1 1 0 0 0
4 3 3 3 3 3 4 6 8 9 9 9 8 8 7 7 7 5 4 3 4 4 3 2 3 4 3 2 1 0 0 0 0 0 0 0 0 0 0 0 0 0 0 0
5 4 3 3 3 4 5 6 7 7 7 7 7 7 7 7 5 4 3 3 3 3 2 1 2 3 3 2 1 0 0 0 0 0 0 0 0 0 0 0 0 0 0 0
4 4 4 3 3 3 4 6 6 6 6 6 7 7 7 7 4 2 2 2 1 1 0 0 1 1 1 1 0 0 0 0 0 0 0 0 0 0 0 0 0 0 0 0
2 3 3 3 3 3 4 6 6 6 6 6 6 6 7 6 3 1 1 1 0 0 0 0 0 0 0 0 0 0 0 0 0 0 0 0 0 0 0 0 0 0 0 0
4 3 3 3 3 3 5 5 5 4 4 4 4 4 5 3 1 0 0 0 0 0 0 0 0 0 0 0 0 0 0 0 1 1 1 1 1 1 1 0 0 0 0 0
4 3 3 3 2 3 4 4 4 3 3 3 3 3 2 1 0 0 0 0 0 0 0 0 0 0 0 0 0 0 1 1 2 2 2 2 2 2 1 0 0 0 0 0
2 2 2 2 1 2 2 3 3 3 3 3 3 3 2 0 0 0 0 0 0 0 0 0 0 0 0 0 0 1 2 3 3 3 3 3 2 1 1 0 0 0 0 0
0 1 2 1 1 1 1 2 3 3 3 3 3 3 2 1 0 0 0 0 0 0 0 0 0 0 0 0 1 2 3 3 3 3 3 2 1 0 0 1 1 1 0 0
Wind_Speed
6 4 5 6 7 7 9 8 8 6 5 2 1 1 1 3 4 4 4 4 3 3 3 3 3 3 2 2 2 2 1 1 1 1 1 0 0 0 1 1 1 1 1 1
6 5 5 7 7 8 7 7 7 6 4 2 1 1 2 2 4 4 4 3 3 3 3 3 3 2 3 2 2 2 1 1 1 1 1 1 0 0 0 1 1 1 1 2
7 5 8 8 6 7 6 5 6 6 1 1 1 1 1 2 3 3 3 3 3 3 2 2 2 2 2 2 2 2 1 1 1 1 1 1 1 1 1 1 1 1 2 2
6 7 10 1 1 4 5 4 4 3 0 1 1 1 1 2 2 2 2 2 2 2 2 2 2 2 2 2 1 1 1 1 1 1 1 1 1 1 1 1 1 1 2 2
7 9 7 4 4 4 6 5 2 2 1 2 2 3 4 2 1 1 1 2 2 1 1 2 1 2 2 2 1 1 1 0 1 1 1 1 1 1 2 2 2 2 1 1
7 9 7 2 3 2 6 6 2 2 2 2 3 4 2 3 2 3 3 3 2 2 2 2 1 1 1 1 1 1 1 1 1 2 2 2 2 2 1 2 2 2 2 2
9 9 4 3 2 4 7 1 3 2 2 3 2 4 3 4 3 4 4 4 3 3 3 3 1 1 0 0 1 1 1 1 1 1 2 2 1 2 2 2 2 2 2 2
8 9 4 4 2 3 3 4 1 1 2 2 2 3 3 3 3 4 4 4 4 3 3 2 1 0 0 0 1 1 1 1 1 1 2 1 1 2 2 2 2 2 2 2
3 2 4 2 1 3 2 1 1 1 2 3 3 3 3 3 3 3 3 3 3 3 3 2 1 1 1 1 1 1 1 1 1 1 1 1 2 2 2 2 2 2 2 1
3 2 1 1 1 0 0 0 0 2 3 4 4 4 4 3 3 3 2 2 2 2 2 2 2 1 1 1 1 1 1 1 1 2 2 1 2 2 2 2 2 2 2 2
4 2 3 3 1 1 1 1 2 2 2 2 3 3 3 3 2 2 2 2 2 1 1 1 1 1 1 1 1 1 1 2 2 2 1 2 1 1 2 1 2 3 2 2
4 2 3 2 2 2 2 2 2 1 2 3 3 3 3 3 2 2 2 2 1 1 0 1 0 1 1 2 2 2 2 2 2 2 1 2 1 1 1 1 1 1 2 3
3 2 2 1 2 3 3 2 2 2 3 3 2 3 3 3 2 2 2 2 1 1 0 0 0 1 1 2 2 3 3 2 2 2 2 2 2 2 2 3 5 5 4 3
2 2 3 3 2 2 3 3 2 2 2 3 2 2 2 2 2 2 1 1 1 2 1 1 1 1 2 2 3 3 4 2 3 2 2 2 2 3 3 3 2 2 5 7
4 3 2 2 3 3 3 3 4 3 3 3 3 2 2 2 1 1 1 1 2 2 2 2 2 2 2 2 3 4 4 3 2 2 2 2 2 3 3 3 3 3 2 3
3 3 3 4 4 4 4 4 4 3 3 3 2 2 1 1 1 1 1 2 3 3 2 2 3 3 3 3 3 3 3 3 3 3 3 2 2 3 3 3 4 3 3 2
5 4 4 4 4 4 3 3 3 3 2 2 2 2 2 2 1 1 2 2 3 3 3 3 3 3 3 3 4 4 3 2 4 4 3 3 3 3 3 3 4 3 3 2
5 4 4 4 4 4 3 3 2 2 2 2 2 2 2 2 2 2 2 2 2 2 2 2 2 3 4 4 4 4 4 3 3 3 3 3 3 4 3 3 4 4 4 3
3 3 3 3 3 3 3 3 2 2 2 3 2 2 2 2 2 2 2 2 3 3 2 2 2 5 4 3 4 4 4 4 4 3 4 3 4 4 4 4 4 4 4 4
3 3 3 3 3 3 3 3 2 2 2 2 2 2 2 2 2 2 2 3 2 2 2 2 3 3 3 3 5 5 5 5 5 4 4 4 4 4 4 4 4 4 4 4
3 3 3 3 3 3 3 3 3 3 2 2 2 2 2 2 2 3 3 3 1 2 3 3 4 3 3 2 5 5 4 4 4 4 4 4 4 4 5 4 4 4 4 4
3 3 3 3 3 3 3 2 2 2 2 2 2 2 2 3 3 3 3 2 2 1 3 3 3 2 3 5 4 4 4 4 4 4 4 4 4 4 5 5 5 4 4 4
3 3 3 3 3 2 2 2 2 2 2 2 2 3 3 3 3 3 2 1 1 2 3 2 2 2 4 5 4 4 4 4 4 4 4 4 4 4 4 5 5 4 4 4
2 2 2 2 2 2 2 1 1 1 2 2 2 3 3 3 2 2 1 1 1 1 2 1 1 2 5 4 3 3 4 4 4 4 4 4 3 4 4 4 4 4 4 5
1 1 2 2 2 2 2 2 2 2 2 2 2 2 2 1 1 1 1 1 0 2 2 1 3 4 4 2 2 3 3 3 3 4 3 3 4 3 3 4 4 4 4 4
1 1 1 1 1 1 1 2 2 2 1 1 1 1 1 0 1 1 1 1 2 2 2 1 1 3 2 2 2 2 2 2 2 3 3 3 4 4 3 4 5 4 4 4
2 2 2 2 1 1 1 1 1 1 1 1 1 1 0 0 0 0 1 1 1 1 1 1 1 1 1 1 1 1 1 2 2 3 3 3 3 3 4 4 4 4 4 4
Wind_Direction
274 280 258 247 236 228 246 270 280 287 292 320 342 347 141 154 148 148 146 137 129 129 119 119 107 99 85 67 60 65 81 79 74 62 62 50 338 283 273 266 251 248 257 264
243 240 240 244 239 232 239 255 263 271 281 39 10 97 131 160 167 164 154 143 138 136 122 119 116 107 95 81 79 81 68 50 53 51 40 20 7 357 339 343 332 304 277 279
242 227 236 233 230 230 229 244 262 270 321 132 164 127 173 182 182 177 163 159 156 146 134 132 128 120 116 103 99 94 79 50 34 38 37 14 0 2 345 337 337 331 314 299
244 229 239 185 107 244 239 245 260 285 305 170 127 132 134 157 167 168 160 152 146 143 138 136 126 128 128 119 115 112 90 48 19 327 324 316 313 322 296 280 288 294 305 305
244 239 238 194 185 219 237 238 254 248 172 144 118 157 135 94 77 119 117 114 119 117 102 101 111 119 133 135 132 136 128 208 283 279 278 276 270 279 288 286 278 270 280 300
239 254 251 150 122 234 250 223 151 172 169 166 190 232 120 103 98 91 88 93 95 94 87 78 69 103 145 155 150 170 193 214 239 262 264 264 268 271 270 267 269 270 272 277
237 244 244 78 118 213 237 52 102 170 179 187 206 352 71 114 116 108 100 93 88 83 78 74 63 48 102 193 206 221 217 226 239 250 252 256 263 258 251 254 267 274 275 265
234 243 220 96 192 251 13 32 104 142 149 142 100 86 108 122 120 118 106 94 92 91 83 73 64 64 15 1 304 248 217 228 249 269 271 240 247 251 252 258 251 259 266 273
272 309 58 72 15 19 9 12 130 160 146 151 143 131 132 139 132 122 113 104 102 98 88 70 51 14 354 350 307 262 223 242 253 261 269 259 245 242 236 239 256 263 263 269
243 187 155 171 175 164 340 21 149 163 163 172 162 149 149 146 141 139 128 123 123 110 85 60 46 23 355 334 309 286 277 267 252 253 249 244 260 259 272 282 273 265 265 284
236 234 222 201 194 151 99 90 102 128 149 154 152 155 153 149 149 149 144 131 129 106 72 53 50 38 344 322 297 288 284 266 259 252 253 252 258 322 299 326 324 299 293 292
255 234 246 204 177 169 153 140 129 137 149 148 154 154 149 151 155 167 168 157 156 145 115 50 27 10 338 304 286 275 270 262 263 269 262 249 218 198 114 219 186 228 283 302
295 267 278 191 188 187 172 156 164 170 154 148 137 141 156 157 163 177 183 185 197 213 230 293 324 331 316 299 282 276 281 280 277 280 273 269 268 257 227 195 198 209 213 219
242 216 206 195 182 167 157 146 150 140 133 132 131 146 155 155 160 181 194 215 229 241 249 259 272 286 293 287 276 272 271 256 261 260 266 270 271 274 268 262 240 221 200 200
212 222 209 170 154 154 152 156 161 154 146 142 146 152 155 156 171 193 202 231 246 249 258 269 277 290 292 284 275 270 272 269 261 269 261 264 271 278 281 279 277 272 263 198
191 183 166 162 163 167 175 176 168 157 157 160 162 157 139 139 191 233 260 260 262 273 281 280 281 288 288 280 272 256 252 272 268 260 255 258 266 275 280 277 278 275 272 280
197 190 183 181 182 184 183 183 172 162 165 171 163 157 164 177 200 243 268 270 273 275 272 269 271 278 276 271 271 269 266 229 223 249 257 266 272 275 279 281 287 285 280 279
214 206 201 196 193 188 185 179 172 167 171 166 164 175 193 214 240 256 269 278 276 271 271 268 274 274 269 269 273 278 275 272 256 254 258 268 279 280 279 278 283 286 281 245
194 195 193 191 189 183 178 178 171 160 158 163 173 185 210 229 239 245 254 259 259 259 266 283 284 267 267 275 279 260 263 264 262 256 257 251 258 268 274 279 279 280 281 274
163 161 159 155 157 162 163 160 153 151 157 161 166 178 211 227 229 238 253 261 275 301 286 278 262 267 273 269 274 264 259 259 261 259 257 261 265 272 275 275 277 277 281 282
147 147 145 134 135 143 145 147 150 158 168 179 186 200 221 241 246 248 252 264 282 295 281 257 254 263 275 286 259 263 262 263 266 266 264 266 269 273 276 277 280 282 284 284
127 125 128 129 134 137 139 148 154 169 189 202 214 222 233 241 247 257 265 273 273 279 263 260 266 324 318 291 264 267 271 271 269 268 269 272 274 275 278 282 283 283 284 286
123 126 133 136 141 145 155 169 174 190 215 225 234 243 255 263 264 268 275 282 282 294 280 300 354 357 293 275 276 267 268 269 269 269 272 275 276 277 278 281 286 288 285 282
130 133 132 137 149 167 190 212 214 222 234 245 247 252 256 254 255 267 301 54 2 295 286 330 283 274 264 266 274 272 269 267 265 266 268 267 266 270 279 286 291 291 288 288
131 137 150 172 189 193 197 208 218 234 245 250 251 242 247 258 277 303 308 302 210 241 252 220 223 248 255 270 275 281 285 296 299 292 285 287 285 281 283 288 292 295 294 290
167 193 172 214 228 221 215 220 229 230 233 239 259 278 282 235 229 240 254 254 253 258 268 261 238 241 262 274 277 281 283 279 279 289 305 305 302 303 301 301 296 289 288 291
190 178 184 202 195 216 229 229 241 259 267 265 279 291 285 266 237 261 280 277 262 263 280 291 293 289 289 286 293 296 298 306 315 313 305 303 303 300 300 295 292 291 291 296